MRA637 KOKC-KWDG

Flight info

Callsign MRA637
Flight time 0h 23m
Altitude 6500
Route VFR
Aircraft C208/L-VGDW/C

Departure

Time 2026-05-04 15:03
Airport OKC Will Rogers World Airport (KOKC)

Arrival

Time 2026-05-04 15:27
Airport Enid Woodring Regional Airport (KWDG)
Time Latitude Longitude Altitude Speed Heading
2026-05-04 15:01 35.40072 -97.60241 1298 ft 0 kts 269°
2026-05-04 15:01 35.40071 -97.60257 1298 ft 6 kts 264°
2026-05-04 15:01 35.40066 -97.60340 1298 ft 13 kts 283°
2026-05-04 15:02 35.40156 -97.60400 1298 ft 20 kts
2026-05-04 15:02 35.40316 -97.60407 1298 ft 25 kts 356°
2026-05-04 15:02 35.40463 -97.60429 1298 ft 18 kts 310°
2026-05-04 15:02 35.40423 -97.60564 1298 ft 19 kts 193°
2026-05-04 15:03 35.40214 -97.60571 1298 ft 47 kts 180°
2026-05-04 15:03 35.39771 -97.60549 1554 ft 66 kts 180°
2026-05-04 15:03 35.39216 -97.60474 1672 ft 97 kts 174°
2026-05-04 15:03 35.38595 -97.60310 2147 ft 88 kts 166°
2026-05-04 15:04 35.38001 -97.60374 2378 ft 97 kts 213°
2026-05-04 15:04 35.37524 -97.60920 2793 ft 93 kts 207°
2026-05-04 15:04 35.37029 -97.61376 3196 ft 93 kts 237°
2026-05-04 15:04 35.37027 -97.62173 3642 ft 99 kts 282°
2026-05-04 15:05 35.37504 -97.62749 4109 ft 103 kts 325°
2026-05-04 15:05 35.38214 -97.62826 4547 ft 104 kts
2026-05-04 15:05 35.38932 -97.62563 4827 ft 116 kts 11°
2026-05-04 15:05 35.39722 -97.62219 5137 ft 125 kts 15°
2026-05-04 15:06 35.40551 -97.61844 5451 ft 131 kts 12°
2026-05-04 15:06 35.41447 -97.61553 5789 ft 133 kts
2026-05-04 15:06 35.42048 -97.61437 6024 ft 134 kts 358°
2026-05-04 15:07 35.44327 -97.61382 6499 ft 160 kts 348°
2026-05-04 15:07 35.45486 -97.61489 6493 ft 176 kts 347°
2026-05-04 15:07 35.46742 -97.61639 6487 ft 184 kts 346°
2026-05-04 15:07 35.48015 -97.61832 6484 ft 188 kts 346°
2026-05-04 15:08 35.49339 -97.62047 6483 ft 191 kts 345°
2026-05-04 15:08 35.50649 -97.62275 6482 ft 192 kts 345°
2026-05-04 15:08 35.51972 -97.62512 6476 ft 193 kts 345°
2026-05-04 15:08 35.53226 -97.62746 6476 ft 193 kts 344°
2026-05-04 15:09 35.54619 -97.63004 6473 ft 193 kts 345°
2026-05-04 15:09 35.55960 -97.63257 6469 ft 193 kts 343°
2026-05-04 15:09 35.57282 -97.63508 6474 ft 193 kts 345°
2026-05-04 15:10 35.59920 -97.64012 6471 ft 193 kts 344°
2026-05-04 15:10 35.61254 -97.64262 6466 ft 193 kts 345°
2026-05-04 15:10 35.63904 -97.64773 6463 ft 192 kts 344°
2026-05-04 15:11 35.65244 -97.65020 6462 ft 193 kts 344°
2026-05-04 15:11 35.66573 -97.65275 6456 ft 193 kts 345°
2026-05-04 15:11 35.67897 -97.65529 6458 ft 193 kts 345°
2026-05-04 15:11 35.69218 -97.65782 6460 ft 192 kts 345°
2026-05-04 15:12 35.70545 -97.66029 6456 ft 193 kts 344°
2026-05-04 15:12 35.71880 -97.66286 6458 ft 193 kts 345°
2026-05-04 15:12 35.73195 -97.66543 6454 ft 194 kts 346°
2026-05-04 15:12 35.74524 -97.66792 6455 ft 192 kts 345°
2026-05-04 15:13 35.75839 -97.67042 6453 ft 191 kts 345°
2026-05-04 15:13 35.77157 -97.67300 6452 ft 192 kts 345°
2026-05-04 15:13 35.78482 -97.67548 6459 ft 192 kts 344°
2026-05-04 15:13 35.79805 -97.67806 6455 ft 192 kts 343°
2026-05-04 15:14 35.81128 -97.68057 6453 ft 192 kts 344°
2026-05-04 15:14 35.82458 -97.68308 6459 ft 192 kts 345°
2026-05-04 15:14 35.83780 -97.68568 6459 ft 192 kts 345°
2026-05-04 15:14 35.85092 -97.68816 6457 ft 192 kts 344°
2026-05-04 15:15 35.86422 -97.69064 6458 ft 192 kts 344°
2026-05-04 15:15 35.87752 -97.69326 6456 ft 193 kts 344°
2026-05-04 15:15 35.89074 -97.69581 6456 ft 192 kts 343°
2026-05-04 15:16 35.91718 -97.70085 6456 ft 192 kts 344°
2026-05-04 15:16 35.93047 -97.70342 6458 ft 192 kts 345°
2026-05-04 15:16 35.95687 -97.70850 6462 ft 193 kts 344°
2026-05-04 15:17 35.97001 -97.71099 6462 ft 192 kts 345°
2026-05-04 15:17 35.99641 -97.71601 6456 ft 192 kts 345°
2026-05-04 15:17 36.00963 -97.71866 6457 ft 192 kts 344°
2026-05-04 15:18 36.02289 -97.72116 6457 ft 193 kts 345°
2026-05-04 15:18 36.03616 -97.72379 6452 ft 193 kts 346°
2026-05-04 15:18 36.04953 -97.72631 6455 ft 193 kts 344°
2026-05-04 15:19 36.07618 -97.73138 6446 ft 194 kts 345°
2026-05-04 15:19 36.08963 -97.73412 6322 ft 197 kts 346°
2026-05-04 15:19 36.11509 -97.73888 5824 ft 184 kts 346°
2026-05-04 15:20 36.12746 -97.74120 5568 ft 182 kts 345°
2026-05-04 15:20 36.14014 -97.74369 5310 ft 181 kts 346°
2026-05-04 15:20 36.15255 -97.74612 5060 ft 181 kts 345°
2026-05-04 15:20 36.16492 -97.74848 4811 ft 181 kts 347°
2026-05-04 15:21 36.17747 -97.75093 4555 ft 182 kts 347°
2026-05-04 15:21 36.19000 -97.75333 4297 ft 182 kts 347°
2026-05-04 15:21 36.21505 -97.75816 3790 ft 182 kts 345°
2026-05-04 15:22 36.22744 -97.76056 3534 ft 183 kts 347°
2026-05-04 15:22 36.24037 -97.76157 3283 ft 185 kts 359°
2026-05-04 15:22 36.26611 -97.76088 2779 ft 185 kts 358°
2026-05-04 15:23 36.27880 -97.76091 2527 ft 184 kts 350°
2026-05-04 15:23 36.29142 -97.76371 2283 ft 183 kts 347°
2026-05-04 15:23 36.30375 -97.76655 2201 ft 174 kts 346°
2026-05-04 15:23 36.31588 -97.76868 2196 ft 179 kts 357°
2026-05-04 15:24 36.34114 -97.76831 2203 ft 183 kts 357°
2026-05-04 15:24 36.36683 -97.76791 2206 ft 186 kts 358°
2026-05-04 15:25 36.37979 -97.76775 2204 ft 186 kts 358°
2026-05-04 15:25 36.39289 -97.76749 2193 ft 186 kts 357°
2026-05-04 15:25 36.40403 -97.77139 1961 ft 152 kts 305°
2026-05-04 15:26 36.40534 -97.78909 1620 ft 98 kts 212°
2026-05-04 15:26 36.39908 -97.79094 1505 ft 84 kts 180°
2026-05-04 15:26 36.38948 -97.79097 1302 ft 71 kts 181°
2026-05-04 15:27 36.38448 -97.79106 1173 ft 67 kts 181°
2026-05-04 15:27 36.37993 -97.79098 1155 ft 12 kts 142°
2026-05-04 15:28 36.37982 -97.79002 1157 ft 0 kts 89°
2026-05-04 15:30 36.37902 -97.79109 1154 ft 42 kts 180°
2026-05-04 15:30 36.37387 -97.80386 1951 ft 107 kts 278°
2026-05-04 15:31 36.37719 -97.81974 2911 ft 84 kts 268°
2026-05-04 15:31 36.37819 -97.82677 3228 ft 91 kts 266°
2026-05-04 15:32 36.38074 -97.85332 4187 ft 113 kts 266°
2026-05-04 15:32 36.38221 -97.87363 4803 ft 121 kts 266°
2026-05-04 15:33 36.38343 -97.89455 5471 ft 121 kts 266°
2026-05-04 15:34 36.38492 -97.92540 6462 ft 123 kts 265°
2026-05-04 15:34 36.38535 -97.93627 6508 ft 140 kts 266°
2026-05-04 15:34 36.38648 -97.96279 6507 ft 159 kts 266°
2026-05-04 15:35 36.38773 -97.99075 6499 ft 164 kts 268°
2026-05-04 15:35 36.38829 -98.00510 6500 ft 166 kts 268°
2026-05-04 15:35 36.38891 -98.01958 6498 ft 167 kts 268°
2026-05-04 15:36 36.39010 -98.04804 6497 ft 167 kts 267°
2026-05-04 15:36 36.39064 -98.06245 6499 ft 167 kts 267°
2026-05-04 15:36 36.39117 -98.07686 6498 ft 167 kts 267°
2026-05-04 15:37 36.39174 -98.09126 6499 ft 166 kts 267°
2026-05-04 15:37 36.39227 -98.10569 6499 ft 167 kts 267°
2026-05-04 15:37 36.39287 -98.12018 6497 ft 167 kts 268°
2026-05-04 15:37 36.39343 -98.13463 6500 ft 167 kts 268°
2026-05-04 15:38 36.39392 -98.14899 6498 ft 167 kts 268°
2026-05-04 15:38 36.39451 -98.16343 6497 ft 167 kts 268°
2026-05-04 15:38 36.39503 -98.17784 6498 ft 167 kts 268°
2026-05-04 15:38 36.39555 -98.19217 6501 ft 167 kts 268°
2026-05-04 15:39 36.39611 -98.20667 6501 ft 166 kts 267°
2026-05-04 15:39 36.39664 -98.22115 6500 ft 167 kts 268°
2026-05-04 15:39 36.39770 -98.24995 6500 ft 166 kts 268°
2026-05-04 15:40 36.39823 -98.26422 6500 ft 166 kts 268°
2026-05-04 15:40 36.39878 -98.27875 6501 ft 166 kts 268°
2026-05-04 15:40 36.39930 -98.29313 6501 ft 166 kts 268°
2026-05-04 15:40 36.39983 -98.30749 6501 ft 166 kts 268°
2026-05-04 15:41 36.40036 -98.32167 6501 ft 166 kts 268°
2026-05-04 15:41 36.40087 -98.33613 6501 ft 166 kts 268°
2026-05-04 15:41 36.40139 -98.35045 6501 ft 166 kts 268°
2026-05-04 15:41 36.40190 -98.36473 6501 ft 167 kts 268°
2026-05-04 15:42 36.40239 -98.37831 6501 ft 167 kts 268°
2026-05-04 15:42 36.40291 -98.39287 6501 ft 167 kts 268°
2026-05-04 15:42 36.40344 -98.40751 6500 ft 167 kts 268°
2026-05-04 15:42 36.40394 -98.42167 6498 ft 167 kts 268°
2026-05-04 15:43 36.40446 -98.43603 6496 ft 167 kts 269°
2026-05-04 15:43 36.40498 -98.45058 6493 ft 167 kts 268°
2026-05-04 15:43 36.40548 -98.46492 6490 ft 167 kts 268°
2026-05-04 15:43 36.40599 -98.47941 6488 ft 167 kts 268°
2026-05-04 15:44 36.40649 -98.49387 6485 ft 167 kts 268°
2026-05-04 15:44 36.40699 -98.50817 6483 ft 167 kts 269°
2026-05-04 15:44 36.40750 -98.52275 6480 ft 167 kts 269°
2026-05-04 15:44 36.40800 -98.53715 6478 ft 167 kts 269°
2026-05-04 15:45 36.40849 -98.55148 6476 ft 167 kts 269°
2026-05-04 15:45 36.40899 -98.56596 6473 ft 167 kts 269°
2026-05-04 15:45 36.40948 -98.58039 6471 ft 167 kts 269°
2026-05-04 15:45 36.40998 -98.59488 6469 ft 167 kts 269°
2026-05-04 15:46 36.41048 -98.60948 6466 ft 167 kts 269°
2026-05-04 15:46 36.41096 -98.62386 6464 ft 167 kts 269°
2026-05-04 15:46 36.41145 -98.63827 6462 ft 167 kts 269°
2026-05-04 15:46 36.41193 -98.65261 6461 ft 167 kts 268°
2026-05-04 15:47 36.41241 -98.66686 6464 ft 167 kts 268°
2026-05-04 15:47 36.41290 -98.68147 6464 ft 167 kts 268°
2026-05-04 15:47 36.41338 -98.69585 6464 ft 168 kts 268°
2026-05-04 15:47 36.41386 -98.71039 6464 ft 168 kts 268°
2026-05-04 15:48 36.41434 -98.72489 6464 ft 168 kts 268°
2026-05-04 15:48 36.41482 -98.73943 6464 ft 168 kts 268°
2026-05-04 15:48 36.41577 -98.76822 6463 ft 168 kts 268°
2026-05-04 15:49 36.41624 -98.78268 6463 ft 168 kts 268°
2026-05-04 15:49 36.41672 -98.79739 6463 ft 168 kts 268°
2026-05-04 15:49 36.41718 -98.81167 6463 ft 168 kts 268°
2026-05-04 15:49 36.41765 -98.82617 6463 ft 168 kts 268°
2026-05-04 15:50 36.41811 -98.84064 6463 ft 168 kts 268°
2026-05-04 15:50 36.41857 -98.85512 6463 ft 168 kts 268°
2026-05-04 15:50 36.41904 -98.86968 6463 ft 167 kts 268°
2026-05-04 15:50 36.41949 -98.88416 6463 ft 167 kts 268°
2026-05-04 15:51 36.41995 -98.89857 6465 ft 167 kts 268°
2026-05-04 15:51 36.42040 -98.91301 6469 ft 167 kts 268°
2026-05-04 15:51 36.42085 -98.92736 6472 ft 167 kts 268°
2026-05-04 15:51 36.42125 -98.94196 6473 ft 167 kts 269°
2026-05-04 15:52 36.42178 -98.95632 6477 ft 167 kts 269°
2026-05-04 15:52 36.42218 -98.97084 6478 ft 167 kts 269°
2026-05-04 15:52 36.42266 -98.98550 6484 ft 167 kts 269°
2026-05-04 15:52 36.42311 -99.00005 6483 ft 168 kts 270°
2026-05-04 15:53 36.42354 -99.01440 6488 ft 167 kts 269°
2026-05-04 15:53 36.42401 -99.02898 6489 ft 167 kts 269°
2026-05-04 15:53 36.42441 -99.04343 6493 ft 167 kts 269°
2026-05-04 15:53 36.42473 -99.05292 6493 ft 167 kts 270°
2026-05-04 15:54 36.42529 -99.07224 6496 ft 168 kts 270°
2026-05-04 15:54 36.42574 -99.08702 6501 ft 168 kts 269°
2026-05-04 15:54 36.42614 -99.10139 6501 ft 168 kts 269°
2026-05-04 15:54 36.42661 -99.11608 6506 ft 168 kts 269°
2026-05-04 15:55 36.42703 -99.13050 6505 ft 168 kts 269°
2026-05-04 15:55 36.42750 -99.14525 6507 ft 168 kts 269°
2026-05-04 15:55 36.42792 -99.15971 6507 ft 168 kts 269°
2026-05-04 15:55 36.42835 -99.17423 6507 ft 167 kts 270°
2026-05-04 15:56 36.42873 -99.18871 6508 ft 168 kts 269°
2026-05-04 15:56 36.42915 -99.20322 6509 ft 168 kts 269°
2026-05-04 15:56 36.42959 -99.21793 6508 ft 168 kts 269°
2026-05-04 15:56 36.43002 -99.23243 6506 ft 168 kts 270°
2026-05-04 15:57 36.43046 -99.24679 6506 ft 168 kts 269°
2026-05-04 15:57 36.43086 -99.26141 6507 ft 167 kts 270°
2026-05-04 15:57 36.43124 -99.27582 6505 ft 167 kts 269°
2026-05-04 15:57 36.43164 -99.29039 6508 ft 167 kts 269°
2026-05-04 15:58 36.43205 -99.30479 6507 ft 168 kts 269°
2026-05-04 15:58 36.43252 -99.31951 6506 ft 168 kts 269°
2026-05-04 15:58 36.43290 -99.33389 6509 ft 168 kts 270°
2026-05-04 15:58 36.43328 -99.34862 6510 ft 168 kts 269°
2026-05-04 15:59 36.43368 -99.36316 6509 ft 168 kts 269°
2026-05-04 15:59 36.43454 -99.37692 6055 ft 155 kts 280°
2026-05-04 15:59 36.43809 -99.38933 5294 ft 157 kts 285°
2026-05-04 15:59 36.44104 -99.40197 4651 ft 151 kts 281°
2026-05-04 16:00 36.44344 -99.41473 4136 ft 152 kts 280°
2026-05-04 16:00 36.44568 -99.42775 3794 ft 156 kts 276°
2026-05-04 16:00 36.44760 -99.44105 3518 ft 155 kts 279°
2026-05-04 16:00 36.44889 -99.45416 3319 ft 153 kts 268°
2026-05-04 16:01 36.44919 -99.46755 3105 ft 155 kts 269°
2026-05-04 16:01 36.44944 -99.48133 3026 ft 164 kts 266°
2026-05-04 16:01 36.44910 -99.49482 2816 ft 142 kts 266°
2026-05-04 16:01 36.44881 -99.50587 2691 ft 99 kts 265°
2026-05-04 16:02 36.44833 -99.51287 2464 ft 74 kts 257°
2026-05-04 16:02 36.44657 -99.51877 2309 ft 73 kts 230°
2026-05-04 16:02 36.43842 -99.52102 2194 ft 41 kts 186°
2026-05-04 16:03 36.43666 -99.52079 2194 ft 17 kts 115°
2026-05-04 16:03 36.43650 -99.51906 2187 ft 17 kts 132°
2026-05-04 16:03 36.43638 -99.51896 2186 ft 0 kts 168°